Tracking 18852 objects as of 24-Nov-2017
HD Live streaming from Space Station
objects crossing your sky now

YAOGAN 11 DEB

Track YAOGAN 11 DEB now!
10-day predictions


NORAD ID: 38175
Int'l Code: 2010-047E
Perigee: 648.3 km
Apogee: 939.6 km
Inclination: 98.1 °
Period: 100.6 minutes
Semi major axis: 7164 km
RCS: 0.0013 m2 (small)
Launch date: September 22, 2010
Source: People's Republic of China (PRC)
Launch site: Jiuquan Satellite Launch Center, China (JSC)

Note: This is SATELLITE DEBRIS
aabbcc
Your satellite tracking list
Your tracking list is empty




NASA's NSSDC Master Catalog

Two Line Element Set (TLE):
1 38175U 10047E   17327.64686602  .00000426  00000-0  14210-3 0  9997
2 38175  98.0677 213.4459 0203278 297.8147  60.2567 14.31481740816959
Source of the keplerian elements: AFSPC